Weather in Zhitikara

Kazakhstan     52°11′02″N   61°11′23″E
temp.,
°C
wind,
m/s
gust,
m/s
humid.,
%
clouds,
%
prec.,
mm/h
press.,
hPa
HPBL,
m
15 may, sat
sat1500:00+22s35364 0.0 102573
03:00+20ssw23380 0.0 102423
06:00+19wnw33390 0.0 102416
09:00+23wnw33365 0.0 1025229
12:00+28wnw33235 0.0 10241792
15:00+30w33175 0.0 10233372
18:00+31nw331611 0.0 10223728
21:00+27nnw45245 0.0 102180
16 may, sun
sun1600:00+23nw610283 0.0 1022227
03:00+19wnw115398 0.0 102211
06:00+18n225157 0.0 102311
09:00+23wnw22370 0.0 1024250
12:00+27w22265 0.0 1023950
15:00+30wsw22174 0.0 10223236
18:00+31sw33165 0.0 10213720
21:00+28w45237 0.0 102074
17 may, mon
mon1700:00+24wnw332719 0.0 102124
03:00+21nw33345 0.0 102125
06:00+19nw22465 0.0 102215
09:00+24w34374 0.0 1023247
12:00+29wnw45215 0.0 10221893
15:00+31wnw55175 0.0 10213543
18:00+31nw55164 0.0 10203746
21:00+27wnw582688 0.0 1019165
18 may, tue
tue1800:00+24nw583595 0.0 1020208
03:00+21nw114779 0.1 102011
06:00+20wnw224881 0.1 102017
09:00+23nnw354053 0.0 1020318
12:00+29nw34265 0.0 10182122
15:00+31nw452075 0.0 10173546
18:00+31nw441838 0.0 10163650
21:00+28nnw46265 0.0 101598
19 may, wed
wed1900:00+21ene23445 0.0 101633
03:00+19n47515 0.1 1017127
06:00+18n486169 0.2 1017158
09:00+21ne574537 0.2 1018502
12:00+22ne7843100 0.2 10201049
15:00+25ne7731100 0.0 10201898
18:00+25ne662837 0.0 10202008
21:00+22ene58370 0.0 1021270